Погода в Тихвине

Погода в Тихвине : погода сейчас, прогноз погоды и архив. Всё, что Вы хотите узнать о погоде в Тихвине!

Хотите узнать прогноз погоды в Тихвине? Тогда Вам сюда: Погода в Тихвине

Поиск расширенной информации на нашем сайте:

Другие новости

Новости СМИ2

Главная страница сайта

Новости сайта

03.07.2017

Напоминаем, что на нашем специализированном сайте Метеоцентр.Азия вы можете получить высокодетализированные автоматические прогнозы погоды по пунктам России, СНГ и мира в авиационном формате (включающие направление и скорость ветра, видимость, явления погоды, количество и форму облачности, нижнюю и верхнюю границу облачности).


Погода в Тихвине - сегодня

Время (UTC), дата Ветер
(°,м/с) 
Видим.   Явления Облачность Т
(°С)
Тd
(°С)
f(%) Тe
(°С)
Pmin
(гПа)
dP
(гПа)
Po
(мм)
O2
(г/м3)
Тmin Tmax R s Состояние
почвы
18 17.11.17 220 (ЮЗ) 10 км  {дождь}  10/10 450 м 
[St]
+2.9 +2.2 95 +2  1006.5  -0.8  749  298    +2.9     
21 17.11.17 230 (ЮЗ) 10 км    10/10 480 м 
[St]
+3.8 +2.6 92 +5  1006.8  0.3  749  297           
00 18.11.17 220 (ЮЗ) 10 км    10/10 870 м 
[Sc]
+3.4 +1.1 85 +2  1006.9  0.1  749  298           
03 18.11.17 220 (ЮЗ) 3{10}  10 км    10/10 630 м 
[Sc]
+3.7 +1.2 84 +2  1006.7  -0.2  749  298  +1.9    0.5     
06 18.11.17 220 (ЮЗ) 20000 м    10/10 600 м 
[Sc]
+3.7 +1.6 86 +2  1007.1  0.4  750  298  +2.9         
09 18.11.17 210 (ЮЗ) 30000 м    10/10 700 м 
[Sc]
+4 +1.3 83 +4  1007.7  0.6  750  298           
12 18.11.17 180 (Ю) 30000 м    10/10 600 м 
[Sc]
+3.1 +0.1 81 +2  1007.6  0.1  750  299           
15 18.11.17 200 (Ю) 20000 м    10/10 660 м 
[Sc]
+2.6 -0.9 78 +1  1007.7  0.1  750  299           
18 18.11.17 190 (Ю) 20000 м    10/10 720 м 
[Sc]
+2.8 -0.6 78 +1  1007  -0.6  749  299    +4       
21 18.11.17 180 (Ю) 20000 м    10/10 750 м 
[Sc]
+2.4 -0.1 84 +2  1007.1  749  299           
00 19.11.17 180 (Ю) 20000 м    10/10 570 м 
[Sc]
+2.3 +0.8 90 +2  1006.9  -0.2  749  299           
03 19.11.17 170 (Ю) 10 км  {дождь}  10/10 600 м 
[Sc]
+1.9 +0.4 90 +1  1006.4  -0.5  749  300  +1.9    0.1     
06 19.11.17 тихо ()   22000 м  {дождь}  10/10 660 м 
[Sc]
+1.6 -1.1 82 +2  1006.5  0.2  749  300  +1.3    0.1     
09 19.11.17 150 (ЮВ) 40000 м    10/0 средняя 
[Ac und]
+1.6 -1.6 79 +2  1006.7  0.1  749  300           
12 19.11.17 120 (ЮВ) 40000 м    9/0 средняя 
[Ac trans]
+1.8 -2.5 73 +3  1006.3  -0.4  749  300           
15 19.11.17 120 (ЮВ) 20000 м    8/8 1380 м 
[Sc]
+0.5 -3.7 73 +1  1006.1  -0.4  749  302           
18 19.11.17 110 (В) 20000 м    10/10 1080 м 
[Sc]
-0.9 -3.1 85 1005.3  -0.6  748  303    +2       
21 19.11.17 тихо ()   10 км    10/10 1440 м 
[Sc]
-0.2 -2.2 86 -0  1005.1  -0.2  748  302           
00 20.11.17 090 (В) 10 км    9/0 средняя 
[Ac trans]
-1.4 -2.1 95 -1  1004.5  -0.7  747  303           
03 20.11.17 тихо ()   10 км    4/0 средняя 
[Ac trans]
-1.8 -2.2 97 -2  1004.3  -0.2  747  303  -1.9         
06 20.11.17 тихо ()   5000 м  слаб. снег  10/0 средняя 
[As op]
-2 -2.3 98 -2  1004.9  0.6  748  304  -2.1    0.2  <0.5  равномерный
сухой снег
100% 
09 20.11.17 тихо ()   5000 м  слаб. снег  10/10 400 м 
[Frnb|Ns]
+0.1 -0.6 95 1006.5  1.7  749  302           
12 20.11.17 тихо ()   15000 м  {снег}  10/10 420 м 
[St]
+0.6 -0.3 94 +1  1007.2  0.7  750  301           
15 20.11.17 тихо ()   20000 м    10/10 480 м 
[St]
+0.8 -0.2 93 +1  1008.2  0.9  750  301      0.5     
18 20.11.17 тихо ()   20000 м  в посл. час снег  10/10 800 м 
[Sc]
+0.8 +0.1 95 +1  1008.6  0.4  751  302    +1  0.4     
Время (UTC), дата Ветер
(°,м/с) 
Видим.   Явления Облачность Т
(°С)
Тd
(°С)
f(%) Тe
(°С)
Pmin
(гПа)
dP
(гПа)
Po
(мм)
O2
(г/м3)
Тmin Tmax R s Состояние
почвы

Для получения пояснительной информации подведите курсор к названию столбца.

ПОГОДА в Тихвине - архив

Всё, что Вы хотите узнать о погоде в Тихвине - удобно и подробно!

Выберите нужную дату (начиная с 1 января 2015* года) и нажмите кнопку "Найти".
Будут отображены архивные сводки погоды по пункту Тихвин, начиная с указанной даты.


Отображать данные в формате CSV (для использования в таблицах Excel)


Внимание! Наш архив погоды предназначен исключительно для личного некоммерческого использования в познавательных целях. Если Вам необходимы официальные справки о состоянии погоды (для производственных, юридических, коммерческих и т.п. целей), обращайтесь в органы Росгидромета.

*Примечание: данная дата относится к архиву по метеостанциям СССР (Россия, СНГ, Балтия).
Архив по метеостанциям Зарубежной Европы и Азии (кроме Китая) хранится 10 дней, по другим регионам земного шара (Китай, Африка, Америка, Австралия, Океания) - 1 день.

Тихвин - район местоположения метеостанции


Название, широта, долгота, высота метеостанции:
Тихвин 59.6°ш. 33.6°д. 61 м над ур. моря [Российская Федерация]

Дополнительная информация

В oтличие oт бoльшинства пoгoдных сайтoв мы публикуем пoдрoбную метеoинфoрмацию в детальнoм прoфессиoнальнoм фoрмате.

Характеристики температуры и влажнoсти вoздуха измеряются на высoте 2 м в тени вдали oт зданий и деревьев.
Скoрoсть ветра измеряется на высoте 10 м (на урoвне рoста челoвека скoрoсть ветра ниже в 1.5-2 раза). Если метеoстанция нахoдится в гoрoде или в лесу, тo скoрoсть ветра занижена на 2-4 м/с пo сравнению с oткрытым местoм. Скoрoсть ветра над акватoриями крупных рек и oзёр, а также на вершинах хoлмoв на 2-5 м/с выше, чем в oбычных услoвиях.
Атмoсфернoе давление в разных тoчках местнoсти мoжет значительнo oтличаться oт давления на метеoстанции, в зависимoсти oт услoвий рельефа (при пoдъёме на 10 м давление пoнижается примернo на 1 мм рт.ст.).